Погода в Лопуховке

Россия / Саратовская область     51°59′30″N   44°42′00″E
темп.,
°C
ветер,
м/с
пор.,
м/с
влажн.,
%
обл.,
%
осадки,
мм/ч
давл.,
гПа
погр.,
м
21 января, пт
пт2101:00−18ююз38100100 0.0 102096
04:00−18ю49100100 0.0 1020114
07:00−18ю410100100 0.0 1019122
10:00−16ююв513100100 0.1 1018217
13:00−11ююв61594100 0.0 1017436
16:00−8ююв91989100 0.0 1014620
19:00−8ююв91894100 0.5 1013615
22:00−6ююв91794100 1.2 1011655
22 января, сб
сб2201:00−4ю81794100 0.8 1011621
04:00−3ю4896100 1.1 1012279
07:00−4ююв3598100 0.3 1012125
10:00−4ююв2598100 0.3 1013127
13:00−3юз2496100 0.8 1014392
16:00−3ююз3696100 1.7 1015411
19:00−7ю229834 0.3 101734
22:00−13ююз2210097 0.3 101910
23 января, вс
вс2301:00−9ююз12100100 0.0 102171
04:00−8в11100100 0.1 102154
07:00−8всв2399100 0.0 102268
10:00−5всв3597100 0.1 1024168
13:00−3в4797100 0.8 1024341
16:00−3в5997100 2.4 1025412
19:00−4в51196100 2.3 1027406
22:00−6в61291100 2.7 1028368
24 января, пн
пн2401:00−9в51289100 0.0 1029289
04:00−8в51191100 0.1 1031290
07:00−11в41092100 0.0 1031221
10:00−11в51291100 0.0 1032252
13:00−9в3890100 0.0 1034310
16:00−9в51191100 0.0 1033241
19:00−11в41191100 0.0 1033217
22:00−12в41194100 0.0 1034195
25 января, вт
вт2501:00−13в3109386 0.0 1034164
04:00−17в369662 0.0 103472
07:00−17вюв369599 0.0 103380
10:00−14вюв3991100 0.0 1033151
13:00−10юв4987100 0.0 1032215
16:00−11вюв3889100 0.0 1031170
19:00−15вюв389274 0.0 1030100
22:00−16юв389666 0.0 103097